Location: Aciu?a
(46.2833°N, 22.4500°E)
Time: 10:53:50
(UTC+00:00)

Cosmos 1455 - Visible Passes

Search period start: 29 May 2022 00:00
Search period end: 08 June 2022 00:00
Orbit: 491 x 516 km, 82.5° (Epoch: 28 May)

Date Brightness Start Highest point End Pass type
(mag) Time Alt. Az. Time Alt. Az. Time Alt. Az.
29 May 4.3 01:28:57 10° WNW 01:29:58 11° W 01:31:01 10° W visible
29 May 3.2 23:32:48 10° N 23:36:20 40° ENE 23:37:34 30° ESE visible
30 May 4.1 01:09:22 10° NW 01:11:26 14° W 01:12:19 14° WSW visible
30 May 3.6 23:14:18 10° N 23:17:37 30° ENE 23:18:49 25° ESE visible
31 May 3.7 00:50:14 10° NW 00:52:53 19° W 00:53:35 18° WSW visible
31 May 4.0 22:55:51 10° NNE 22:58:52 23° ENE 23:00:06 20° ESE visible
01 Jun 3.4 00:31:14 10° NW 00:34:18 25° W 00:34:51 24° WSW visible
01 Jun 4.3 22:37:29 10° NNE 22:40:07 18° ENE 22:41:23 16° E visible
02 Jun 3.0 00:12:20 10° NNW 00:15:41 33° W 00:16:09 31° WSW visible
02 Jun 4.6 22:19:15 10° NE 22:21:19 14° ENE 22:22:41 12° E visible
02 Jun 2.5 23:53:30 10° NNW 23:57:03 44° W 23:57:27 42° WSW visible
03 Jun 4.8 22:01:28 10° NE 22:02:30 11° ENE 22:03:32 10° E visible
03 Jun 2.1 23:34:42 10° NNW 23:38:23 61° W 23:38:45 57° SW visible
04 Jun 1.9 23:15:58 10° N 23:19:42 84° W 23:20:03 71° S visible
05 Jun 2.1 22:57:16 10° N 23:00:58 72° E 23:01:22 64° SE visible
06 Jun 2.5 22:38:35 10° N 22:42:14 52° ENE 22:42:41 48° ESE visible
07 Jun 4.4 00:15:52 10° WNW 00:17:13 12° W 00:17:26 12° W visible
07 Jun 3.0 22:19:58 10° N 22:23:28 38° ENE 22:24:01 36° E visible
